Time,TemperatureF,DewpointF,PressureIn,WindDirection,WindDirectionDegrees,WindSpeedMPH,WindSpeedGustMPH,Humidity,HourlyPrecipIn,Conditions,Clouds,dailyrainin,SoftwareType,DateUTC
2013-03-27 00:00:00,32.5,23.5,30.27,North,355,0.0,0.0,69,0.00,,,0.00,Wunderground v.1.15,2013-03-27 05:00:00,
2013-03-27 00:05:00,32.4,23.0,30.27,North,355,0.0,0.0,68,0.00,,,0.00,Wunderground v.1.15,2013-03-27 05:05:00,
2013-03-27 00:10:00,32.4,22.7,30.27,North,355,0.0,0.0,67,0.00,,,0.00,Wunderground v.1.15,2013-03-27 05:10:00,
2013-03-27 00:20:00,32.3,22.6,30.27,North,355,0.0,0.0,67,0.00,,,0.00,Wunderground v.1.15,2013-03-27 05:20:00,
2013-03-27 00:25:00,32.3,22.2,30.27,North,355,0.0,0.0,66,0.00,,,0.00,Wunderground v.1.15,2013-03-27 05:25:00,
2013-03-27 00:35:00,32.4,22.3,30.27,North,355,0.0,0.0,66,0.00,,,0.00,Wunderground v.1.15,2013-03-27 05:35:00,
2013-03-27 00:40:00,32.5,22.0,30.27,North,355,0.0,0.0,65,0.00,,,0.00,Wunderground v.1.15,2013-03-27 05:40:00,
2013-03-27 00:45:00,32.6,21.8,30.27,North,355,0.0,0.0,64,0.00,,,0.00,Wunderground v.1.15,2013-03-27 05:45:00,
2013-03-27 00:50:00,32.6,22.1,30.27,North,355,0.0,1.0,65,0.00,,,0.00,Wunderground v.1.15,2013-03-27 05:50:00,
2013-03-27 00:55:00,32.7,21.9,30.27,North,355,0.0,1.0,64,0.00,,,0.00,Wunderground v.1.15,2013-03-27 05:55:00,
2013-03-27 01:00:00,32.7,22.2,30.27,WNW,284,0.0,0.0,65,0.00,,,0.00,Wunderground v.1.15,2013-03-27 06:00:00,
2013-03-27 01:05:00,32.7,22.2,30.27,West,281,0.0,0.0,65,0.00,,,0.00,Wunderground v.1.15,2013-03-27 06:05:00,
2013-03-27 01:10:00,32.7,22.2,30.27,West,279,0.0,1.0,65,0.00,,,0.00,Wunderground v.1.15,2013-03-27 06:10:00,
2013-03-27 01:15:00,32.7,22.6,30.27,West,279,0.0,1.0,66,0.00,,,0.00,Wunderground v.1.15,2013-03-27 06:15:00,
2013-03-27 01:25:00,32.6,22.5,30.28,West,279,0.0,0.0,66,0.00,,,0.00,Wunderground v.1.15,2013-03-27 06:25:00,
2013-03-27 01:30:00,32.5,22.4,30.28,West,279,0.0,0.0,66,0.00,,,0.00,Wunderground v.1.15,2013-03-27 06:30:00,
2013-03-27 01:35:00,32.5,22.4,30.28,WNW,298,0.0,0.0,66,0.00,,,0.00,Wunderground v.1.15,2013-03-27 06:35:00,
2013-03-27 01:45:00,32.4,22.7,30.28,NNW,329,0.0,1.0,67,0.00,,,0.00,Wunderground v.1.15,2013-03-27 06:45:00,
2013-03-27 01:50:00,32.4,22.7,30.28,NW,309,0.0,0.0,67,0.00,,,0.00,Wunderground v.1.15,2013-03-27 06:50:00,
2013-03-27 02:00:00,32.4,22.7,30.28,NW,308,0.0,0.0,67,0.00,,,0.00,Wunderground v.1.15,2013-03-27 07:00:00,
2013-03-27 02:05:00,32.4,22.7,30.28,NW,308,0.0,0.0,67,0.00,,,0.00,Wunderground v.1.15,2013-03-27 07:05:00,
2013-03-27 02:10:00,32.4,23.0,30.28,West,273,0.0,0.0,68,0.00,,,0.00,Wunderground v.1.15,2013-03-27 07:10:00,
2013-03-27 02:15:00,32.3,22.9,30.28,West,275,0.0,0.0,68,0.00,,,0.00,Wunderground v.1.15,2013-03-27 07:15:00,
2013-03-27 02:20:00,32.3,22.9,30.28,West,276,0.0,0.0,68,0.00,,,0.00,Wunderground v.1.15,2013-03-27 07:20:00,
2013-03-27 02:25:00,32.3,22.9,30.28,West,276,0.0,0.0,68,0.00,,,0.00,Wunderground v.1.15,2013-03-27 07:25:00,
2013-03-27 02:30:00,32.3,23.3,30.27,West,276,0.0,0.0,69,0.00,,,0.00,Wunderground v.1.15,2013-03-27 07:30:00,
2013-03-27 02:35:00,32.2,23.2,30.27,West,267,0.0,0.0,69,0.00,,,0.00,Wunderground v.1.15,2013-03-27 07:35:00,
2013-03-27 02:40:00,32.2,23.2,30.27,West,279,0.0,0.0,69,0.00,,,0.00,Wunderground v.1.15,2013-03-27 07:40:00,
2013-03-27 02:45:00,32.3,23.6,30.27,West,279,0.0,0.0,70,0.00,,,0.00,Wunderground v.1.15,2013-03-27 07:45:00,
2013-03-27 02:50:00,32.2,23.5,30.27,WNW,282,0.0,0.0,70,0.00,,,0.00,Wunderground v.1.15,2013-03-27 07:50:00,
2013-03-27 02:55:00,32.2,23.5,30.27,WNW,289,0.0,0.0,70,0.00,,,0.00,Wunderground v.1.15,2013-03-27 07:55:00,
2013-03-27 03:00:00,32.2,23.5,30.27,WNW,289,0.0,0.0,70,0.00,,,0.00,Wunderground v.1.15,2013-03-27 08:00:00,
2013-03-27 04:30:00,31.9,24.2,30.27,NW,313,0.0,0.0,73,0.00,,,0.00,Wunderground v.1.15,2013-03-27 09:30:00,
2013-03-27 04:35:00,31.9,24.6,30.27,NNW,348,0.0,0.0,74,0.00,,,0.00,Wunderground v.1.15,2013-03-27 09:35:00,
2013-03-27 04:40:00,31.8,24.5,30.27,NNW,339,1.0,1.0,74,0.00,,,0.00,Wunderground v.1.15,2013-03-27 09:40:00,
2013-03-27 04:45:00,31.8,24.5,30.27,NW,321,0.0,1.0,74,0.00,,,0.00,Wunderground v.1.15,2013-03-27 09:45:00,
2013-03-27 04:50:00,31.8,24.5,30.27,NW,313,1.0,1.0,74,0.00,,,0.00,Wunderground v.1.15,2013-03-27 09:50:00,
2013-03-27 04:55:00,31.7,24.4,30.27,NW,311,1.0,1.0,74,0.00,,,0.00,Wunderground v.1.15,2013-03-27 09:55:00,
2013-03-27 05:00:00,31.7,24.7,30.27,NW,311,0.0,0.0,75,0.00,,,0.00,Wunderground v.1.15,2013-03-27 10:00:00,
2013-03-27 05:05:00,31.7,24.7,30.27,NW,311,0.0,0.0,75,0.00,,,0.00,Wunderground v.1.15,2013-03-27 10:05:00,
2013-03-27 05:10:00,31.6,24.6,30.27,NNW,345,0.0,0.0,75,0.00,,,0.00,Wunderground v.1.15,2013-03-27 10:10:00,
2013-03-27 05:15:00,31.6,24.6,30.27,NNW,345,0.0,0.0,75,0.00,,,0.00,Wunderground v.1.15,2013-03-27 10:15:00,
2013-03-27 05:20:00,31.6,24.6,30.28,NNW,345,0.0,0.0,75,0.00,,,0.00,Wunderground v.1.15,2013-03-27 10:20:00,
2013-03-27 05:25:00,31.6,24.6,30.28,NNW,345,0.0,0.0,75,0.00,,,0.00,Wunderground v.1.15,2013-03-27 10:25:00,
2013-03-27 05:30:00,31.6,24.6,30.28,NNW,340,1.0,1.0,75,0.00,,,0.00,Wunderground v.1.15,2013-03-27 10:30:00,
2013-03-27 05:35:00,31.5,24.8,30.28,North,355,1.0,1.0,76,0.00,,,0.00,Wunderground v.1.15,2013-03-27 10:35:00,
2013-03-27 05:40:00,31.6,24.6,30.28,NNW,340,1.0,1.0,75,0.00,,,0.00,Wunderground v.1.15,2013-03-27 10:40:00,
2013-03-27 05:45:00,31.5,24.8,30.28,NNW,339,0.0,1.0,76,0.00,,,0.00,Wunderground v.1.15,2013-03-27 10:45:00,
2013-03-27 05:50:00,31.5,24.5,30.28,NNW,339,0.0,0.0,75,0.00,,,0.00,Wunderground v.1.15,2013-03-27 10:50:00,
2013-03-27 05:55:00,31.5,24.8,30.28,NNW,338,0.0,1.0,76,0.00,,,0.00,Wunderground v.1.15,2013-03-27 10:55:00,
2013-03-27 06:00:00,31.5,24.8,30.28,NNW,339,0.0,0.0,76,0.00,,,0.00,Wunderground v.1.15,2013-03-27 11:00:00,
2013-03-27 06:05:00,31.5,24.5,30.28,NNW,337,0.0,0.0,75,0.00,,,0.00,Wunderground v.1.15,2013-03-27 11:05:00,
2013-03-27 06:10:00,31.5,24.5,30.28,NNW,337,0.0,0.0,75,0.00,,,0.00,Wunderground v.1.15,2013-03-27 11:10:00,
2013-03-27 06:15:00,31.5,24.8,30.28,NNW,337,0.0,0.0,76,0.00,,,0.00,Wunderground v.1.15,2013-03-27 11:15:00,
2013-03-27 06:20:00,31.5,24.8,30.28,NNW,333,0.0,3.0,76,0.00,,,0.00,Wunderground v.1.15,2013-03-27 11:20:00,
2013-03-27 06:25:00,31.5,24.5,30.28,NNW,333,0.0,3.0,75,0.00,,,0.00,Wunderground v.1.15,2013-03-27 11:25:00,
2013-03-27 06:30:00,31.4,24.7,30.29,NNW,333,0.0,0.0,76,0.00,,,0.00,Wunderground v.1.15,2013-03-27 11:30:00,
2013-03-27 06:35:00,31.4,24.7,30.29,NNW,333,0.0,2.0,76,0.00,,,0.00,Wunderground v.1.15,2013-03-27 11:35:00,
2013-03-27 06:45:00,31.3,24.9,30.29,NNW,332,0.0,0.0,77,0.00,,,0.00,Wunderground v.1.15,2013-03-27 11:45:00,
2013-03-27 06:50:00,31.2,24.8,30.29,NNW,332,0.0,0.0,77,0.00,,,0.00,Wunderground v.1.15,2013-03-27 11:50:00,
2013-03-27 07:00:00,31.2,24.8,30.29,NNW,334,0.0,0.0,77,0.00,,,0.00,Wunderground v.1.15,2013-03-27 12:00:00,
2013-03-27 07:05:00,31.2,24.8,30.29,NNW,334,0.0,0.0,77,0.00,,,0.00,Wunderground v.1.15,2013-03-27 12:05:00,
2013-03-27 07:10:00,31.2,24.8,30.30,NNW,333,0.0,0.0,77,0.00,,,0.00,Wunderground v.1.15,2013-03-27 12:10:00,
2013-03-27 07:20:00,31.3,24.9,30.30,NNW,331,0.0,0.0,77,0.00,,,0.00,Wunderground v.1.15,2013-03-27 12:20:00,
2013-03-27 07:25:00,31.3,24.9,30.31,NNW,330,0.0,0.0,77,0.00,,,0.00,Wunderground v.1.15,2013-03-27 12:25:00,
2013-03-27 07:30:00,31.4,25.0,30.30,NNW,330,0.0,0.0,77,0.00,,,0.00,Wunderground v.1.15,2013-03-27 12:30:00,
2013-03-27 07:35:00,31.4,25.0,30.31,NNW,330,0.0,0.0,77,0.00,,,0.00,Wunderground v.1.15,2013-03-27 12:35:00,
2013-03-27 07:40:00,31.5,24.8,30.30,NNW,329,0.0,0.0,76,0.00,,,0.00,Wunderground v.1.15,2013-03-27 12:40:00,
2013-03-27 07:45:00,31.6,24.9,30.30,NNW,329,0.0,0.0,76,0.00,,,0.00,Wunderground v.1.15,2013-03-27 12:45:00,
2013-03-27 07:50:00,31.7,25.0,30.31,NW,326,0.0,4.0,76,0.00,,,0.00,Wunderground v.1.15,2013-03-27 12:50:00,
2013-03-27 07:55:00,31.8,25.1,30.31,NW,323,0.0,4.0,76,0.00,,,0.00,Wunderground v.1.15,2013-03-27 12:55:00,
2013-03-27 08:00:00,32.0,25.3,30.31,NW,323,0.0,0.0,76,0.00,,,0.00,Wunderground v.1.15,2013-03-27 13:00:00,
2013-03-27 08:05:00,32.1,25.1,30.31,NW,325,0.0,0.0,75,0.00,,,0.00,Wunderground v.1.15,2013-03-27 13:05:00,
2013-03-27 08:10:00,32.2,25.5,30.31,NW,325,0.0,0.0,76,0.00,,,0.00,Wunderground v.1.15,2013-03-27 13:10:00,
2013-03-27 08:15:00,32.3,25.3,30.32,NW,317,0.0,4.0,75,0.00,,,0.00,Wunderground v.1.15,2013-03-27 13:15:00,
2013-03-27 08:20:00,32.4,25.4,30.31,NW,318,0.0,0.0,75,0.00,,,0.00,Wunderground v.1.15,2013-03-27 13:20:00,
2013-03-27 08:24:00,32.5,25.5,30.32,NW,317,0.0,2.0,75,0.00,,,0.00,Wunderground v.1.15,2013-03-27 13:24:00,
2013-03-27 08:29:00,32.7,25.3,30.32,NE,41,0.0,2.0,74,0.00,,,0.00,Wunderground v.1.15,2013-03-27 13:29:00,
2013-03-27 08:34:00,32.8,25.4,30.32,North,355,1.0,2.0,74,0.00,,,0.00,Wunderground v.1.15,2013-03-27 13:34:00,
2013-03-27 08:39:00,33.0,25.6,30.32,North,349,1.0,1.0,74,0.00,,,0.00,Wunderground v.1.15,2013-03-27 13:39:00,
2013-03-27 08:44:00,33.1,25.7,30.31,North,349,0.0,1.0,74,0.00,,,0.00,Wunderground v.1.15,2013-03-27 13:44:00,
2013-03-27 08:50:00,33.3,25.6,30.31,NNW,336,1.0,1.0,73,0.00,,,0.00,Wunderground v.1.15,2013-03-27 13:50:00,
2013-03-27 09:00:00,33.7,25.6,30.32,North,349,1.0,6.0,72,0.00,,,0.00,Wunderground v.1.15,2013-03-27 14:00:00,
2013-03-27 09:05:00,33.8,25.4,30.31,NNW,346,1.0,6.0,71,0.00,,,0.00,Wunderground v.1.15,2013-03-27 14:05:00,
2013-03-27 09:10:00,33.9,25.5,30.31,North,350,2.0,2.0,71,0.00,,,0.00,Wunderground v.1.15,2013-03-27 14:10:00,
2013-03-27 09:15:00,34.1,25.7,30.32,NNW,333,2.0,2.0,71,0.00,,,0.00,Wunderground v.1.15,2013-03-27 14:15:00,
2013-03-27 09:20:00,34.2,25.8,30.32,North,350,1.0,1.0,71,0.00,,,0.00,Wunderground v.1.15,2013-03-27 14:20:00,
2013-03-27 09:25:00,34.4,26.0,30.31,North,360,1.0,1.0,71,0.00,,,0.00,Wunderground v.1.15,2013-03-27 14:25:00,
2013-03-27 09:30:00,34.4,25.6,30.31,WNW,298,1.0,1.0,70,0.00,,,0.00,Wunderground v.1.15,2013-03-27 14:30:00,
2013-03-27 09:35:00,34.7,25.9,30.31,WNW,298,1.0,1.0,70,0.00,,,0.00,Wunderground v.1.15,2013-03-27 14:35:00,
2013-03-27 09:40:00,35.0,25.9,30.31,WNW,298,0.0,0.0,69,0.00,,,0.00,Wunderground v.1.15,2013-03-27 14:40:00,
2013-03-27 09:45:00,35.3,26.1,30.31,NW,306,0.0,0.0,69,0.00,,,0.00,Wunderground v.1.15,2013-03-27 14:45:00,
2013-03-27 09:50:00,35.5,26.0,30.31,NNW,347,1.0,1.0,68,0.00,,,0.00,Wunderground v.1.15,2013-03-27 14:50:00,
2013-03-27 09:55:00,35.9,26.4,30.31,NNW,343,1.0,1.0,68,0.00,,,0.00,Wunderground v.1.15,2013-03-27 14:55:00,
2013-03-27 10:00:00,36.2,26.3,30.32,NNW,348,1.0,2.0,67,0.00,,,0.00,Wunderground v.1.15,2013-03-27 15:00:00,
2013-03-27 10:10:00,36.9,26.2,30.32,NNW,341,1.0,6.0,65,0.00,,,0.00,Wunderground v.1.15,2013-03-27 15:10:00,
2013-03-27 10:15:00,37.1,26.0,30.32,NNW,348,2.0,6.0,64,0.00,,,0.00,Wunderground v.1.15,2013-03-27 15:15:00,
2013-03-27 10:20:00,37.4,25.9,30.32,North,350,2.0,2.0,63,0.00,,,0.00,Wunderground v.1.15,2013-03-27 15:20:00,
2013-03-27 10:25:00,37.7,26.2,30.32,NW,312,1.0,5.0,63,0.00,,,0.00,Wunderground v.1.15,2013-03-27 15:25:00,
2013-03-27 10:30:00,37.9,26.4,30.32,NNW,331,1.0,1.0,63,0.00,,,0.00,Wunderground v.1.15,2013-03-27 15:30:00,
2013-03-27 10:35:00,38.3,26.4,30.32,WNW,291,1.0,1.0,62,0.00,,,0.00,Wunderground v.1.15,2013-03-27 15:35:00,
2013-03-27 10:40:00,38.6,26.3,30.32,WNW,303,1.0,1.0,61,0.00,,,0.00,Wunderground v.1.15,2013-03-27 15:40:00,
2013-03-27 10:45:00,39.0,26.3,30.32,NW,317,1.0,1.0,60,0.00,,,0.00,Wunderground v.1.15,2013-03-27 15:45:00,
2013-03-27 10:50:00,39.3,25.7,30.33,NNW,327,1.0,1.0,58,0.00,,,0.00,Wunderground v.1.15,2013-03-27 15:50:00,
2013-03-27 11:00:00,39.7,26.1,30.32,NW,315,1.0,1.0,58,0.00,,,0.00,Wunderground v.1.15,2013-03-27 16:00:00,
2013-03-27 11:05:00,39.8,25.8,30.33,North,360,1.0,5.0,57,0.00,,,0.00,Wunderground v.1.15,2013-03-27 16:05:00,
2013-03-27 11:10:00,40.1,25.6,30.32,NW,323,1.0,1.0,56,0.00,,,0.00,Wunderground v.1.15,2013-03-27 16:10:00,
2013-03-27 11:15:00,40.3,25.4,30.32,NNW,327,2.0,5.0,55,0.00,,,0.00,Wunderground v.1.15,2013-03-27 16:15:00,
2013-03-27 11:20:00,40.4,25.1,30.33,NW,311,2.0,2.0,54,0.00,,,0.00,Wunderground v.1.15,2013-03-27 16:20:00,
2013-03-27 11:25:00,40.7,25.3,30.32,North,360,2.0,3.0,54,0.00,,,0.00,Wunderground v.1.15,2013-03-27 16:25:00,
2013-03-27 11:30:00,40.9,25.5,30.32,North,360,3.0,3.0,54,0.00,,,0.00,Wunderground v.1.15,2013-03-27 16:30:00,
2013-03-27 11:35:00,41.2,24.4,30.32,WNW,299,3.0,4.0,51,0.00,,,0.00,Wunderground v.1.15,2013-03-27 16:35:00,
2013-03-27 11:40:00,41.4,25.1,30.32,NNW,337,2.0,4.0,52,0.00,,,0.00,Wunderground v.1.15,2013-03-27 16:40:00,
2013-03-27 11:45:00,41.5,23.7,30.32,North,355,2.0,4.0,49,0.00,,,0.00,Wunderground v.1.15,2013-03-27 16:45:00,
2013-03-27 11:50:00,41.2,21.4,30.32,North,5,4.0,4.0,45,0.00,,,0.00,Wunderground v.1.15,2013-03-27 16:50:00,
2013-03-27 11:55:00,41.1,22.4,30.32,NNW,347,4.0,5.0,47,0.00,,,0.00,Wunderground v.1.15,2013-03-27 16:55:00,
2013-03-27 12:00:00,41.1,22.4,30.32,WNW,284,3.0,3.0,47,0.00,,,0.00,Wunderground v.1.15,2013-03-27 17:00:00,
2013-03-27 12:05:00,41.1,21.9,30.32,North,5,2.0,3.0,46,0.00,,,0.00,Wunderground v.1.15,2013-03-27 17:05:00,
2013-03-27 12:10:00,41.4,22.1,30.32,North,355,2.0,2.0,46,0.00,,,0.00,Wunderground v.1.15,2013-03-27 17:10:00,
2013-03-27 12:15:00,41.5,21.7,30.32,North,355,2.0,5.0,45,0.00,,,0.00,Wunderground v.1.15,2013-03-27 17:15:00,
2013-03-27 12:20:00,41.3,21.0,30.32,WNW,302,4.0,4.0,44,0.00,,,0.00,Wunderground v.1.15,2013-03-27 17:20:00,
2013-03-27 12:25:00,40.9,20.6,30.32,NW,323,4.0,4.0,44,0.00,,,0.00,Wunderground v.1.15,2013-03-27 17:25:00,
2013-03-27 12:30:00,40.7,20.5,30.32,North,350,2.0,5.0,44,0.00,,,0.00,Wunderground v.1.15,2013-03-27 17:30:00,
2013-03-27 12:35:00,40.8,22.1,30.32,NE,39,1.0,5.0,47,0.00,,,0.00,Wunderground v.1.15,2013-03-27 17:35:00,
2013-03-27 12:40:00,40.8,21.1,30.32,North,355,3.0,5.0,45,0.00,,,0.00,Wunderground v.1.15,2013-03-27 17:40:00,
2013-03-27 12:45:00,41.0,21.8,30.32,North,355,3.0,5.0,46,0.00,,,0.00,Wunderground v.1.15,2013-03-27 17:45:00,
2013-03-27 12:50:00,41.2,22.0,30.32,NNW,333,1.0,1.0,46,0.00,,,0.00,Wunderground v.1.15,2013-03-27 17:50:00,
2013-03-27 12:55:00,41.2,21.4,30.32,NNW,336,1.0,4.0,45,0.00,,,0.00,Wunderground v.1.15,2013-03-27 17:55:00,
2013-03-27 13:00:00,41.3,21.5,30.32,WNW,286,1.0,1.0,45,0.00,,,0.00,Wunderground v.1.15,2013-03-27 18:00:00,
2013-03-27 13:05:00,41.3,21.5,30.32,WNW,293,2.0,4.0,45,0.00,,,0.00,Wunderground v.1.15,2013-03-27 18:05:00,
2013-03-27 13:10:00,41.3,21.5,30.32,West,274,2.0,2.0,45,0.00,,,0.00,Wunderground v.1.15,2013-03-27 18:10:00,
2013-03-27 13:15:00,41.4,21.6,30.32,North,5,1.0,2.0,45,0.00,,,0.00,Wunderground v.1.15,2013-03-27 18:15:00,
2013-03-27 13:20:00,41.6,21.8,30.32,North,355,1.0,2.0,45,0.00,,,0.00,Wunderground v.1.15,2013-03-27 18:20:00,
2013-03-27 13:25:00,41.7,22.4,30.32,NNW,346,1.0,4.0,46,0.00,,,0.00,Wunderground v.1.15,2013-03-27 18:25:00,
2013-03-27 13:30:00,41.5,22.2,30.32,NNE,32,3.0,3.0,46,0.00,,,0.00,Wunderground v.1.15,2013-03-27 18:30:00,
2013-03-27 13:35:00,41.2,23.0,30.32,NNW,342,4.0,4.0,48,0.00,,,0.00,Wunderground v.1.15,2013-03-27 18:35:00,
2013-03-27 13:40:00,41.0,22.3,30.32,North,9,4.0,5.0,47,0.00,,,0.00,Wunderground v.1.15,2013-03-27 18:40:00,
2013-03-27 13:45:00,40.8,22.6,30.32,NNW,346,2.0,5.0,48,0.00,,,0.00,Wunderground v.1.15,2013-03-27 18:45:00,
2013-03-27 13:50:00,40.9,22.2,30.32,NNW,333,2.0,2.0,47,0.00,,,0.00,Wunderground v.1.15,2013-03-27 18:50:00,
2013-03-27 13:55:00,40.9,22.2,30.32,NW,324,2.0,2.0,47,0.00,,,0.00,Wunderground v.1.15,2013-03-27 18:55:00,
2013-03-27 14:00:00,41.1,22.9,30.32,WNW,298,1.0,1.0,48,0.00,,,0.00,Wunderground v.1.15,2013-03-27 19:00:00,
2013-03-27 14:05:00,41.2,22.0,30.32,West,274,1.0,1.0,46,0.00,,,0.00,Wunderground v.1.15,2013-03-27 19:05:00,
2013-03-27 14:14:00,41.3,22.1,30.32,NNW,346,2.0,3.0,46,0.00,,,0.00,Wunderground v.1.15,2013-03-27 19:14:00,
2013-03-27 14:19:00,41.4,21.6,30.32,WNW,292,2.0,2.0,45,0.00,,,0.00,Wunderground v.1.15,2013-03-27 19:19:00,
2013-03-27 14:24:00,41.5,21.2,30.32,SW,228,1.0,2.0,44,0.00,,,0.00,Wunderground v.1.15,2013-03-27 19:24:00,
2013-03-27 14:29:00,41.5,21.2,30.32,WNW,290,1.0,1.0,44,0.00,,,0.00,Wunderground v.1.15,2013-03-27 19:29:00,
2013-03-27 14:34:00,41.4,21.6,30.31,WNW,284,1.0,1.0,45,0.00,,,0.00,Wunderground v.1.15,2013-03-27 19:34:00,
2013-03-27 14:40:00,41.5,22.7,30.31,North,11,1.0,1.0,47,0.00,,,0.00,Wunderground v.1.15,2013-03-27 19:40:00,
2013-03-27 14:45:00,41.5,22.2,30.31,WNW,298,2.0,3.0,46,0.00,,,0.00,Wunderground v.1.15,2013-03-27 19:45:00,
2013-03-27 14:50:00,41.5,21.2,30.31,West,274,2.0,2.0,44,0.00,,,0.00,Wunderground v.1.15,2013-03-27 19:50:00,
2013-03-27 14:55:00,41.3,21.5,30.31,West,273,1.0,2.0,45,0.00,,,0.00,Wunderground v.1.15,2013-03-27 19:55:00,
2013-03-27 15:00:00,41.3,21.0,30.31,WSW,240,1.0,1.0,44,0.00,,,0.00,Wunderground v.1.15,2013-03-27 20:00:00,
2013-03-27 15:09:00,42.5,22.1,30.31,WNW,282,2.0,2.0,44,0.00,,,0.00,Wunderground v.1.15,2013-03-27 20:09:00,
2013-03-27 15:15:00,43.2,21.6,30.31,NW,321,2.0,2.0,42,0.00,,,0.00,Wunderground v.1.15,2013-03-27 20:15:00,
2013-03-27 15:20:00,43.3,21.7,30.30,NNW,331,1.0,1.0,42,0.00,,,0.00,Wunderground v.1.15,2013-03-27 20:20:00,
2013-03-27 15:25:00,43.3,22.3,30.30,WNW,302,2.0,5.0,43,0.00,,,0.00,Wunderground v.1.15,2013-03-27 20:25:00,
2013-03-27 15:30:00,43.7,22.1,30.30,West,261,3.0,3.0,42,0.00,,,0.00,Wunderground v.1.15,2013-03-27 20:30:00,
2013-03-27 15:35:00,43.9,21.7,30.30,West,273,2.0,3.0,41,0.00,,,0.00,Wunderground v.1.15,2013-03-27 20:35:00,
2013-03-27 15:40:00,43.3,21.7,30.30,West,277,2.0,2.0,42,0.00,,,0.00,Wunderground v.1.15,2013-03-27 20:40:00,
2013-03-27 15:45:00,42.9,21.4,30.30,NNW,336,1.0,2.0,42,0.00,,,0.00,Wunderground v.1.15,2013-03-27 20:45:00,
2013-03-27 15:50:00,42.9,21.9,30.30,WNW,292,1.0,1.0,43,0.00,,,0.00,Wunderground v.1.15,2013-03-27 20:50:00,
2013-03-27 15:55:00,43.3,22.8,30.30,North,355,1.0,1.0,44,0.00,,,0.00,Wunderground v.1.15,2013-03-27 20:55:00,
2013-03-27 16:00:00,43.1,22.1,30.30,NNW,344,2.0,2.0,43,0.00,,,0.00,Wunderground v.1.15,2013-03-27 21:00:00,
2013-03-27 16:05:00,42.9,21.9,30.29,West,263,2.0,2.0,43,0.00,,,0.00,Wunderground v.1.15,2013-03-27 21:05:00,
2013-03-27 16:10:00,42.9,21.4,30.30,West,259,1.0,2.0,42,0.00,,,0.00,Wunderground v.1.15,2013-03-27 21:10:00,
2013-03-27 16:15:00,43.4,21.8,30.29,NNW,344,1.0,3.0,42,0.00,,,0.00,Wunderground v.1.15,2013-03-27 21:15:00,
2013-03-27 16:20:00,43.6,22.5,30.29,North,355,3.0,3.0,43,0.00,,,0.00,Wunderground v.1.15,2013-03-27 21:20:00,
2013-03-27 16:25:00,43.8,22.7,30.29,North,5,3.0,3.0,43,0.00,,,0.00,Wunderground v.1.15,2013-03-27 21:25:00,
2013-03-27 16:30:00,44.2,22.0,30.29,North,355,2.0,6.0,41,0.00,,,0.00,Wunderground v.1.15,2013-03-27 21:30:00,
2013-03-27 16:35:00,44.4,22.7,30.29,North,355,3.0,6.0,42,0.00,,,0.00,Wunderground v.1.15,2013-03-27 21:35:00,
2013-03-27 16:40:00,44.3,22.1,30.29,WNW,284,3.0,3.0,41,0.00,,,0.00,Wunderground v.1.15,2013-03-27 21:40:00,
2013-03-27 16:45:00,44.2,21.4,30.29,WSW,249,1.0,3.0,40,0.00,,,0.00,Wunderground v.1.15,2013-03-27 21:45:00,
2013-03-27 16:49:00,43.6,22.0,30.29,NW,321,1.0,1.0,42,0.00,,,0.00,Wunderground v.1.15,2013-03-27 21:49:00,
2013-03-27 16:54:00,43.4,22.4,30.29,WNW,298,2.0,2.0,43,0.00,,,0.00,Wunderground v.1.15,2013-03-27 21:54:00,
2013-03-27 17:00:00,43.5,21.9,30.29,NNW,327,1.0,1.0,42,0.00,,,0.00,Wunderground v.1.15,2013-03-27 22:00:00,
2013-03-27 17:05:00,43.4,21.8,30.29,NNW,333,1.0,4.0,42,0.00,,,0.00,Wunderground v.1.15,2013-03-27 22:05:00,
2013-03-27 17:10:00,43.3,21.7,30.29,NNW,340,1.0,1.0,42,0.00,,,0.00,Wunderground v.1.15,2013-03-27 22:10:00,
2013-03-27 17:15:00,42.9,21.4,30.29,WNW,282,1.0,1.0,42,0.00,,,0.00,Wunderground v.1.15,2013-03-27 22:15:00,
2013-03-27 17:19:00,42.7,22.3,30.29,West,262,1.0,1.0,44,0.00,,,0.00,Wunderground v.1.15,2013-03-27 22:19:00,
2013-03-27 17:25:00,42.5,22.1,30.29,West,274,1.0,1.0,44,0.00,,,0.00,Wunderground v.1.15,2013-03-27 22:25:00,
2013-03-27 17:30:00,42.4,22.0,30.29,WNW,296,1.0,1.0,44,0.00,,,0.00,Wunderground v.1.15,2013-03-27 22:30:00,
2013-03-27 17:35:00,42.6,21.6,30.29,NW,307,1.0,1.0,43,0.00,,,0.00,Wunderground v.1.15,2013-03-27 22:35:00,
2013-03-27 17:40:00,42.7,21.7,30.29,NNW,328,1.0,1.0,43,0.00,,,0.00,Wunderground v.1.15,2013-03-27 22:40:00,
2013-03-27 17:45:00,43.0,22.5,30.29,NNW,332,1.0,4.0,44,0.00,,,0.00,Wunderground v.1.15,2013-03-27 22:45:00,
2013-03-27 17:55:00,43.1,22.1,30.29,NW,316,1.0,4.0,43,0.00,,,0.00,Wunderground v.1.15,2013-03-27 22:55:00,
2013-03-27 18:00:00,42.8,21.3,30.29,NNW,338,1.0,1.0,42,0.00,,,0.00,Wunderground v.1.15,2013-03-27 23:00:00,
2013-03-27 18:05:00,42.5,22.1,30.29,NNW,342,1.0,1.0,44,0.00,,,0.00,Wunderground v.1.15,2013-03-27 23:05:00,
2013-03-27 18:10:00,42.1,21.7,30.29,NNW,344,1.0,4.0,44,0.00,,,0.00,Wunderground v.1.15,2013-03-27 23:10:00,
2013-03-27 18:20:00,41.3,21.0,30.29,North,350,1.0,1.0,44,0.00,,,0.00,Wunderground v.1.15,2013-03-27 23:20:00,
2013-03-27 18:29:00,40.6,20.9,30.29,North,5,1.0,1.0,45,0.00,,,0.00,Wunderground v.1.15,2013-03-27 23:29:00,
2013-03-27 18:34:00,40.2,21.0,30.29,North,5,1.0,1.0,46,0.00,,,0.00,Wunderground v.1.15,2013-03-27 23:34:00,
2013-03-27 18:39:00,40.0,21.4,30.29,North,5,0.0,0.0,47,0.00,,,0.00,Wunderground v.1.15,2013-03-27 23:39:00,
2013-03-27 18:44:00,39.8,21.7,30.29,North,5,0.0,0.0,48,0.00,,,0.00,Wunderground v.1.15,2013-03-27 23:44:00,
2013-03-27 18:49:00,39.5,21.4,30.29,North,5,0.0,0.0,48,0.00,,,0.00,Wunderground v.1.15,2013-03-27 23:49:00,
2013-03-27 18:55:00,39.3,20.7,30.29,North,5,0.0,0.0,47,0.00,,,0.00,Wunderground v.1.15,2013-03-27 23:55:00,
2013-03-27 19:00:00,39.1,21.0,30.29,North,5,0.0,0.0,48,0.00,,,0.00,Wunderground v.1.15,2013-03-28 00:00:00,
2013-03-27 19:09:00,38.5,21.5,30.29,North,5,0.0,0.0,50,0.00,,,0.00,Wunderground v.1.15,2013-03-28 00:09:00,
2013-03-27 19:14:00,38.1,22.5,30.29,North,5,0.0,0.0,53,0.00,,,0.00,Wunderground v.1.15,2013-03-28 00:14:00,
2013-03-27 19:19:00,37.7,22.1,30.29,North,5,0.0,0.0,53,0.00,,,0.00,Wunderground v.1.15,2013-03-28 00:19:00,
2013-03-27 19:24:00,37.2,21.6,30.29,North,5,0.0,0.0,53,0.00,,,0.00,Wunderground v.1.15,2013-03-28 00:24:00,
2013-03-27 19:30:00,36.9,21.8,30.29,North,5,0.0,0.0,54,0.00,,,0.00,Wunderground v.1.15,2013-03-28 00:30:00,
2013-03-27 19:35:00,36.5,22.3,30.29,North,5,0.0,0.0,56,0.00,,,0.00,Wunderground v.1.15,2013-03-28 00:35:00,
2013-03-27 19:45:00,35.7,22.8,30.29,North,5,0.0,0.0,59,0.00,,,0.00,Wunderground v.1.15,2013-03-28 00:45:00,
2013-03-27 19:50:00,35.3,22.0,30.29,North,5,0.0,0.0,58,0.00,,,0.00,Wunderground v.1.15,2013-03-28 00:50:00,
2013-03-27 19:55:00,34.8,21.9,30.29,North,5,0.0,0.0,59,0.00,,,0.00,Wunderground v.1.15,2013-03-28 00:55:00,
2013-03-27 20:00:00,34.4,22.7,30.29,North,5,0.0,0.0,62,0.00,,,0.00,Wunderground v.1.15,2013-03-28 01:00:00,
2013-03-27 20:10:00,33.7,22.4,30.29,North,5,0.0,0.0,63,0.00,,,0.00,Wunderground v.1.15,2013-03-28 01:10:00,
2013-03-27 20:15:00,33.2,22.3,30.29,North,5,0.0,0.0,64,0.00,,,0.00,Wunderground v.1.15,2013-03-28 01:15:00,
2013-03-27 20:20:00,32.8,22.0,30.29,North,5,0.0,0.0,64,0.00,,,0.00,Wunderground v.1.15,2013-03-28 01:20:00,
2013-03-27 20:25:00,32.6,22.1,30.30,North,5,0.0,0.0,65,0.00,,,0.00,Wunderground v.1.15,2013-03-28 01:25:00,
2013-03-27 20:30:00,32.3,22.2,30.30,North,5,0.0,0.0,66,0.00,,,0.00,Wunderground v.1.15,2013-03-28 01:30:00,
2013-03-27 20:35:00,32.0,22.6,30.30,North,5,0.0,0.0,68,0.00,,,0.00,Wunderground v.1.15,2013-03-28 01:35:00,
2013-03-27 20:40:00,31.6,22.2,30.30,North,5,0.0,0.0,68,0.00,,,0.00,Wunderground v.1.15,2013-03-28 01:40:00,
2013-03-27 20:45:00,31.3,22.3,30.30,North,5,0.0,0.0,69,0.00,,,0.00,Wunderground v.1.15,2013-03-28 01:45:00,
2013-03-27 20:50:00,31.0,22.4,30.30,North,5,0.0,0.0,70,0.00,,,0.00,Wunderground v.1.15,2013-03-28 01:50:00,
2013-03-27 20:55:00,30.7,22.4,30.30,North,5,0.0,0.0,71,0.00,,,0.00,Wunderground v.1.15,2013-03-28 01:55:00,
2013-03-27 21:00:00,30.3,22.0,30.30,North,5,0.0,0.0,71,0.00,,,0.00,Wunderground v.1.15,2013-03-28 02:00:00,
2013-03-27 21:05:00,30.1,22.2,30.30,North,5,0.0,0.0,72,0.00,,,0.00,Wunderground v.1.15,2013-03-28 02:05:00,
2013-03-27 21:10:00,29.9,22.3,30.30,North,5,0.0,0.0,73,0.00,,,0.00,Wunderground v.1.15,2013-03-28 02:10:00,
2013-03-27 21:15:00,29.6,22.0,30.31,North,5,0.0,0.0,73,0.00,,,0.00,Wunderground v.1.15,2013-03-28 02:15:00,
2013-03-27 21:20:00,29.4,22.1,30.31,North,5,0.0,0.0,74,0.00,,,0.00,Wunderground v.1.15,2013-03-28 02:20:00,
2013-03-27 21:25:00,29.2,21.9,30.31,North,5,0.0,0.0,74,0.00,,,0.00,Wunderground v.1.15,2013-03-28 02:25:00,
2013-03-27 21:30:00,28.9,21.7,30.31,North,5,0.0,0.0,74,0.00,,,0.00,Wunderground v.1.15,2013-03-28 02:30:00,
2013-03-27 21:35:00,28.8,21.9,30.31,North,5,0.0,0.0,75,0.00,,,0.00,Wunderground v.1.15,2013-03-28 02:35:00,
2013-03-27 21:40:00,28.6,21.7,30.31,North,5,0.0,0.0,75,0.00,,,0.00,Wunderground v.1.15,2013-03-28 02:40:00,
2013-03-27 21:45:00,28.4,21.8,30.31,North,5,0.0,0.0,76,0.00,,,0.00,Wunderground v.1.15,2013-03-28 02:45:00,
2013-03-27 21:50:00,28.3,21.7,30.31,North,5,0.0,0.0,76,0.00,,,0.00,Wunderground v.1.15,2013-03-28 02:50:00,
2013-03-27 21:55:00,28.2,21.9,30.31,North,5,0.0,0.0,77,0.00,,,0.00,Wunderground v.1.15,2013-03-28 02:55:00,
2013-03-27 22:00:00,28.2,21.9,30.31,North,5,0.0,0.0,77,0.00,,,0.00,Wunderground v.1.15,2013-03-28 03:00:00,
2013-03-27 22:05:00,28.2,21.9,30.31,North,5,0.0,0.0,77,0.00,,,0.00,Wunderground v.1.15,2013-03-28 03:05:00,
2013-03-27 22:10:00,28.1,21.8,30.32,North,5,0.0,0.0,77,0.00,,,0.00,Wunderground v.1.15,2013-03-28 03:10:00,
2013-03-27 22:15:00,27.9,21.9,30.32,North,5,0.0,0.0,78,0.00,,,0.00,Wunderground v.1.15,2013-03-28 03:15:00,
2013-03-27 22:20:00,27.8,21.8,30.32,North,5,0.0,0.0,78,0.00,,,0.00,Wunderground v.1.15,2013-03-28 03:20:00,
2013-03-27 22:25:00,27.6,21.6,30.32,North,5,0.0,0.0,78,0.00,,,0.00,Wunderground v.1.15,2013-03-28 03:25:00,
2013-03-27 22:30:00,27.5,21.8,30.32,North,5,0.0,0.0,79,0.00,,,0.00,Wunderground v.1.15,2013-03-28 03:30:00,
2013-03-27 22:35:00,27.3,21.6,30.32,North,5,0.0,0.0,79,0.00,,,0.00,Wunderground v.1.15,2013-03-28 03:35:00,
2013-03-27 22:40:00,27.2,21.8,30.32,North,5,0.0,0.0,80,0.00,,,0.00,Wunderground v.1.15,2013-03-28 03:40:00,
2013-03-27 22:45:00,27.0,21.7,30.32,North,5,0.0,0.0,80,0.00,,,0.00,Wunderground v.1.15,2013-03-28 03:45:00,
2013-03-27 22:50:00,26.9,21.6,30.32,North,5,0.0,0.0,80,0.00,,,0.00,Wunderground v.1.15,2013-03-28 03:50:00,
2013-03-27 22:55:00,26.7,21.7,30.32,North,5,0.0,0.0,81,0.00,,,0.00,Wunderground v.1.15,2013-03-28 03:55:00,
2013-03-27 23:00:00,26.5,21.5,30.32,North,5,0.0,0.0,81,0.00,,,0.00,Wunderground v.1.15,2013-03-28 04:00:00,
2013-03-27 23:05:00,26.3,21.6,30.32,North,5,0.0,0.0,82,0.00,,,0.00,Wunderground v.1.15,2013-03-28 04:05:00,
2013-03-27 23:10:00,26.1,21.4,30.32,North,5,0.0,0.0,82,0.00,,,0.00,Wunderground v.1.15,2013-03-28 04:10:00,
2013-03-27 23:15:00,26.0,21.3,30.32,North,5,0.0,0.0,82,0.00,,,0.00,Wunderground v.1.15,2013-03-28 04:15:00,
2013-03-27 23:20:00,25.8,21.3,30.32,North,5,0.0,0.0,83,0.00,,,0.00,Wunderground v.1.15,2013-03-28 04:20:00,
2013-03-27 23:25:00,25.7,21.3,30.32,North,5,0.0,0.0,83,0.00,,,0.00,Wunderground v.1.15,2013-03-28 04:25:00,
2013-03-27 23:30:00,25.6,21.4,30.32,North,5,0.0,0.0,84,0.00,,,0.00,Wunderground v.1.15,2013-03-28 04:30:00,
2013-03-27 23:35:00,25.5,21.3,30.32,North,5,0.0,0.0,84,0.00,,,0.00,Wunderground v.1.15,2013-03-28 04:35:00,
2013-03-27 23:40:00,25.4,21.2,30.31,North,5,0.0,0.0,84,0.00,,,0.00,Wunderground v.1.15,2013-03-28 04:40:00,
2013-03-27 23:45:00,25.3,21.1,30.31,North,5,0.0,0.0,84,0.00,,,0.00,Wunderground v.1.15,2013-03-28 04:45:00,
2013-03-27 23:50:00,25.3,21.1,30.31,North,5,0.0,0.0,84,0.00,,,0.00,Wunderground v.1.15,2013-03-28 04:50:00,
2013-03-27 23:55:00,25.2,21.0,30.31,North,5,0.0,0.0,84,0.00,,,0.00,Wunderground v.1.15,2013-03-28 04:55:00,